Change the Weather History Date:

Sunday, October 27, 2013

  Actual Average Record
Temperature  
Mean Temperature 47 °F -  
Max Temperature 60 °F 57 °F 75 °F (1964)
Min Temperature 34 °F 40 °F 28 °F (1976)
Degree Days  
Heating Degree Days 18    
Moisture  
Dew Point 34 °F    
Average Humidity 55    
Maximum Humidity 82    
Minimum Humidity 34    
Precipitation  
Precipitation 0.00 in - - ()
Sea Level Pressure  
Sea Level Pressure 29.93 in    
Wind  
Wind Speed 11 mph (WNW)    
Max Wind Speed 17 mph    
Max Gust Speed 25 mph    
Visibility 10 miles    
Events Rain    
Averages and records for this station are not official NWS values.
T = Trace of Precipitation, MM = Missing Value Source: NWS Daily Summary

Daily Weather History Graph

Daily Weather History Graph

Search for Another Location

Airport or City:

Trip Planner

Search our weather history database for the weather conditions in past years. The results will help you decide how hot, cold, wet, or windy it might be!

Date:

Astronomy

Oct. 27, 2013 Rise Set
Actual Time 7:13 AM EDT 5:49 PM EDT
Civil Twilight 6:45 AM EDT 6:17 PM EDT
Nautical Twilight 6:13 AM EDT 6:50 PM EDT
Astronomical Twilight 5:40 AM EDT 7:22 PM EDT
Moon 12:04 AM EDT (10/27) 2:00 PM EDT (10/27)
Length of Visible Light 11h 32m
Length of Day
10h 35m
Last Quarter, 44% of the Moon is Illuminated
Oct 27
Last Quarter
Nov 3
New
Nov 10
First Quarter
Nov 17
Full
Nov 25
Last Quarter

Hourly Weather History & Observations

Time (EDT) Temp. Windchill Dew Point Humidity Pressure Visibility Wind Dir Wind Speed Gust Speed Precip Events Conditions
12:56 AM 55.0 °F - 34.0 °F 45% 29.88 in 10.0 mi WSW 17.3 mph 25.3 mph N/A   Overcast
1:56 AM 54.0 °F - 35.1 °F 49% 29.87 in 10.0 mi West 13.8 mph 25.3 mph N/A   Overcast
2:56 AM 52.0 °F - 33.1 °F 49% 29.86 in 10.0 mi West 13.8 mph 20.7 mph 0.00 in   Overcast
3:56 AM 50.0 °F - 37.0 °F 61% 29.84 in 10.0 mi WNW 11.5 mph 17.3 mph 0.00 in Rain Light Rain
4:56 AM 48.0 °F - 39.0 °F 71% 29.86 in 9.0 mi West 8.1 mph - 0.00 in Rain Light Rain
5:56 AM 48.0 °F - 37.9 °F 68% 29.86 in 10.0 mi WNW 3.5 mph - 0.00 in Rain Light Rain
6:56 AM 46.0 °F 44.8 °F 36.0 °F 68% 29.86 in 10.0 mi West 3.5 mph - 0.00 in   Scattered Clouds
7:56 AM 46.9 °F - 35.1 °F 63% 29.89 in 10.0 mi West 8.1 mph - N/A   Clear
8:56 AM 50.0 °F - 35.1 °F 57% 29.91 in 10.0 mi West 10.4 mph - N/A   Clear
9:56 AM 52.0 °F - 35.1 °F 53% 29.91 in 10.0 mi WNW 8.1 mph - N/A   Clear
10:56 AM 54.0 °F - 35.1 °F 49% 29.92 in 10.0 mi NW 8.1 mph - N/A   Clear
11:56 AM 55.9 °F - 34.0 °F 44% 29.92 in 10.0 mi West 9.2 mph - N/A   Scattered Clouds
12:56 PM 57.0 °F - 37.0 °F 47% 29.90 in 10.0 mi SW 11.5 mph - N/A   Scattered Clouds
1:56 PM 57.0 °F - 39.0 °F 51% 29.88 in 10.0 mi SW 15.0 mph 20.7 mph N/A   Partly Cloudy
2:56 PM 57.9 °F - 33.1 °F 39% 29.89 in 10.0 mi NNW 10.4 mph - N/A   Scattered Clouds
3:56 PM 55.9 °F - 30.9 °F 39% 29.91 in 10.0 mi WNW 8.1 mph - N/A   Clear
4:56 PM 55.9 °F - 28.0 °F 34% 29.92 in 10.0 mi WNW 9.2 mph - N/A   Clear
5:56 PM 54.0 °F - 28.9 °F 38% 29.95 in 10.0 mi NW 12.7 mph - N/A   Scattered Clouds
6:56 PM 50.0 °F - 28.9 °F 44% 29.99 in 10.0 mi NW 5.8 mph - N/A   Mostly Cloudy
7:56 PM 46.0 °F 44.8 °F 30.9 °F 56% 30.01 in 10.0 mi WNW 3.5 mph - N/A   Partly Cloudy
8:56 PM 42.1 °F 39.2 °F 32.0 °F 67% 30.04 in 10.0 mi NNE 4.6 mph - N/A   Clear
9:56 PM 37.9 °F 34.4 °F 32.0 °F 79% 30.07 in 10.0 mi NNW 4.6 mph - N/A   Clear
10:56 PM 39.0 °F 34.8 °F 32.0 °F 76% 30.09 in 10.0 mi NNE 5.8 mph - N/A   Clear
11:56 PM 34.0 °F 28.8 °F 28.9 °F 82% 30.10 in 10.0 mi NNW 5.8 mph - N/A   Clear